When you browse on this site, cookies collect data to enhance your experience and personalize the content and advertising you see.
Visit our Privacy Policy to learn more. By continuing to use the site, you agree to this use of cookies and data.
  • In Hungary
  • List of Countries
  • For 7 days
  • Water Temperature
  • Satellite Maps
  • Weather Map
  • News
  • Weather Widgets
  • user-avatar
    Login

    Hourly Weather Hajdarabad

    Today, 22 January, Tuesday

    Time Temperature Precipitation Wind Pressure Humidity
    00:00 +20°C° 0 mm 1 mps 755 mmHg 57%
    01:00 +19°C° 0 mm 1 mps 755 mmHg 59%
    02:00 +19°C° 0 mm 1 mps 755 mmHg 60%
    03:00 +18°C° 0 mm 1 mps 755 mmHg 62%
    04:00 +18°C° 0 mm 1 mps 754 mmHg 63%
    05:00 +18°C° 0 mm 1 mps 754 mmHg 65%
    06:00 +18°C° 0 mm 1 mps 755 mmHg 65%
    07:00 +18°C° 0 mm 1 mps 755 mmHg 65%
    08:00 +18°C° 0 mm 1 mps 756 mmHg 65%
    09:00 +20°C° 0 mm 1 mps 756 mmHg 58%
    10:00 +21°C° 0 mm 1 mps 756 mmHg 51%
    11:00 +23°C° 0 mm 1 mps 757 mmHg 44%
    12:00 +24°C° 0 mm 1 mps 756 mmHg 36%
    13:00 +25°C° 0 mm 1 mps 756 mmHg 28%
    14:00 +26°C° 0 mm 2 mps 755 mmHg 20%
    15:00 +26°C° 0 mm 2 mps 755 mmHg 18%
    16:00 +26°C° 0 mm 3 mps 755 mmHg 16%
    17:00 +26°C° 0 mm 3 mps 755 mmHg 14%
    18:00 +24°C° 0 mm 3 mps 755 mmHg 16%
    19:00 +23°C° 0 mm 2 mps 756 mmHg 18%
    20:00 +20°C° 0 mm 2 mps 756 mmHg 20%
    21:00 +19°C° 0 mm 2 mps 756 mmHg 23%
    22:00 +19°C° 0 mm 2 mps 756 mmHg 26%
    23:00 +18°C° 0 mm 2 mps 756 mmHg 29%

    Tomorrow, 23 January, Wednesday

    Time Temperature Precipitation Wind Pressure Humidity
    00:00 +17°C° 0 mm 2 mps 757 mmHg 29%
    01:00 +17°C° 0 mm 2 mps 757 mmHg 30%
    02:00 +17°C° 0 mm 3 mps 757 mmHg 30%
    03:00 +16°C° 0 mm 3 mps 757 mmHg 30%
    04:00 +16°C° 0 mm 3 mps 757 mmHg 29%
    05:00 +14°C° 0 mm 3 mps 757 mmHg 29%
    06:00 +14°C° 0 mm 3 mps 757 mmHg 27%
    07:00 +14°C° 0 mm 3 mps 758 mmHg 24%
    08:00 +14°C° 0 mm 3 mps 759 mmHg 22%
    09:00 +17°C° 0 mm 4 mps 759 mmHg 19%
    10:00 +19°C° 0 mm 4 mps 759 mmHg 16%
    11:00 +21°C° 0 mm 5 mps 760 mmHg 13%
    12:00 +22°C° 0 mm 5 mps 759 mmHg 12%
    13:00 +23°C° 0 mm 5 mps 759 mmHg 10%
    14:00 +25°C° 0 mm 5 mps 758 mmHg 9%
    15:00 +25°C° 0 mm 5 mps 758 mmHg 9%
    16:00 +23°C° 0 mm 5 mps 757 mmHg 10%
    17:00 +23°C° 0 mm 5 mps 757 mmHg 10%
    18:00 +22°C° 0 mm 4 mps 758 mmHg 11%
    19:00 +20°C° 0 mm 4 mps 758 mmHg 12%
    20:00 +19°C° 0 mm 4 mps 759 mmHg 13%
    21:00 +19°C° 0 mm 4 mps 759 mmHg 14%
    22:00 +18°C° 0 mm 4 mps 760 mmHg 15%
    23:00 +18°C° 0 mm 4 mps 760 mmHg 16%

    Day after tomorrow, 24 January, Thursday

    Time Temperature Precipitation Wind Pressure Humidity
    00:00 +17°C° 0 mm 4 mps 760 mmHg 16%
    01:00 +16°C° 0 mm 5 mps 760 mmHg 16%
    02:00 +16°C° 0 mm 5 mps 760 mmHg 17%
    03:00 +15°C° 0 mm 5 mps 760 mmHg 18%
    04:00 +15°C° 0 mm 6 mps 760 mmHg 19%
    05:00 +15°C° 0 mm 6 mps 760 mmHg 20%
    06:00 +15°C° 0 mm 6 mps 760 mmHg 23%
    07:00 +15°C° 0 mm 6 mps 761 mmHg 25%
    08:00 +14°C° 0 mm 6 mps 761 mmHg 28%
    09:00 +16°C° 0 mm 7 mps 762 mmHg 28%
    10:00 +18°C° 0 mm 7 mps 762 mmHg 28%
    11:00 +20°C° 0 mm 7 mps 762 mmHg 29%
    12:00 +22°C° 0 mm 7 mps 761 mmHg 27%
    13:00 +23°C° 0 mm 7 mps 760 mmHg 24%
    14:00 +24°C° 0 mm 6 mps 760 mmHg 22%
    15:00 +24°C° 0 mm 6 mps 759 mmHg 22%
    16:00 +24°C° 0 mm 6 mps 759 mmHg 22%
    17:00 +24°C° 0 mm 6 mps 759 mmHg 22%
    18:00 +23°C° 0 mm 6 mps 759 mmHg 24%
    19:00 +22°C° 0 mm 6 mps 760 mmHg 26%
    20:00 +21°C° 0 mm 6 mps 760 mmHg 28%
    21:00 +20°C° 0 mm 6 mps 761 mmHg 29%
    22:00 +19°C° 0 mm 6 mps 761 mmHg 29%
    23:00 +19°C° 0 mm 6 mps 761 mmHg 30%

    25 January, Friday

    Time Temperature Precipitation Wind Pressure Humidity
    00:00 +17°C° 0 mm 6 mps 761 mmHg 32%
    01:00 +17°C° 0 mm 5 mps 760 mmHg 34%
    02:00 +16°C° 0 mm 5 mps 760 mmHg 35%
    03:00 +16°C° 0 mm 5 mps 760 mmHg 36%
    04:00 +15°C° 0 mm 5 mps 760 mmHg 38%
    05:00 +15°C° 0 mm 4 mps 760 mmHg 39%
    06:00 +15°C° 0 mm 4 mps 760 mmHg 39%
    07:00 +15°C° 0 mm 4 mps 761 mmHg 40%
    08:00 +14°C° 0 mm 4 mps 762 mmHg 40%
    09:00 +16°C° 0 mm 5 mps 762 mmHg 36%
    10:00 +19°C° 0 mm 5 mps 762 mmHg 32%
    11:00 +21°C° 0 mm 5 mps 762 mmHg 28%
    12:00 +22°C° 0 mm 5 mps 762 mmHg 25%
    13:00 +23°C° 0 mm 5 mps 761 mmHg 22%
    14:00 +25°C° 0 mm 5 mps 760 mmHg 19%
    15:00 +25°C° 0 mm 5 mps 760 mmHg 19%
    16:00 +23°C° 0 mm 5 mps 760 mmHg 19%
    17:00 +23°C° 0 mm 5 mps 759 mmHg 18%
    18:00 +22°C° 0 mm 4 mps 760 mmHg 20%
    19:00 +21°C° 0 mm 4 mps 761 mmHg 22%
    20:00 +20°C° 0 mm 4 mps 761 mmHg 24%
    21:00 +19°C° 0 mm 3 mps 761 mmHg 24%
    22:00 +18°C° 0 mm 3 mps 761 mmHg 25%
    23:00 +18°C° 0 mm 3 mps 762 mmHg 26%

    26 January, Saturday

    Time Temperature Precipitation Wind Pressure Humidity
    00:00 +17°C° 0 mm 3 mps 761 mmHg 26%
    01:00 +17°C° 0 mm 3 mps 761 mmHg 26%
    02:00 +16°C° 0 mm 3 mps 761 mmHg 26%
    03:00 +16°C° 0 mm 3 mps 761 mmHg 27%
    04:00 +14°C° 0 mm 3 mps 761 mmHg 28%
    05:00 +14°C° 0 mm 3 mps 761 mmHg 29%
    06:00 +14°C° 0 mm 3 mps 762 mmHg 29%
    07:00 +14°C° 0 mm 3 mps 762 mmHg 30%
    08:00 +14°C° 0 mm 3 mps 763 mmHg 30%
    09:00 +17°C° 0 mm 3 mps 763 mmHg 26%
    10:00 +19°C° 0 mm 4 mps 764 mmHg 22%
    11:00 +21°C° 0 mm 4 mps 764 mmHg 19%
    12:00 +22°C° 0 mm 4 mps 763 mmHg 17%
    13:00 +23°C° 0 mm 4 mps 763 mmHg 16%
    14:00 +25°C° 0 mm 5 mps 762 mmHg 14%
    15:00 +23°C° 0 mm 5 mps 762 mmHg 14%
    16:00 +23°C° 0 mm 5 mps 761 mmHg 14%
    17:00 +23°C° 0 mm 5 mps 761 mmHg 14%
    18:00 +22°C° 0 mm 4 mps 762 mmHg 15%
    19:00 +20°C° 0 mm 4 mps 762 mmHg 16%
    20:00 +19°C° 0 mm 4 mps 763 mmHg 17%
    21:00 +18°C° 0 mm 3 mps 763 mmHg 17%
    22:00 +18°C° 0 mm 3 mps 763 mmHg 17%
    23:00 +17°C° 0 mm 3 mps 764 mmHg 17%

    27 January, Sunday

    Time Temperature Precipitation Wind Pressure Humidity
    00:00 +17°C° 0 mm 3 mps 763 mmHg 17%
    01:00 +16°C° 0 mm 3 mps 763 mmHg 17%
    02:00 +16°C° 0 mm 3 mps 763 mmHg 17%
    03:00 +14°C° 0 mm 3 mps 763 mmHg 18%
    04:00 +14°C° 0 mm 3 mps 763 mmHg 18%
    05:00 +14°C° 0 mm 3 mps 763 mmHg 18%
    06:00 +14°C° 0 mm 3 mps 764 mmHg 18%
    07:00 +14°C° 0 mm 3 mps 764 mmHg 19%
    08:00 +14°C° 0 mm 4 mps 765 mmHg 19%
    09:00 +15°C° 0 mm 4 mps 765 mmHg 17%
    10:00 +18°C° 0 mm 4 mps 766 mmHg 15%
    11:00 +20°C° 0 mm 5 mps 766 mmHg 13%
    12:00 +21°C° 0 mm 5 mps 765 mmHg 12%
    13:00 +23°C° 0 mm 5 mps 764 mmHg 12%
    14:00 +25°C° 0 mm 5 mps 763 mmHg 12%
    15:00 +25°C° 0 mm 5 mps 763 mmHg 12%
    16:00 +23°C° 0 mm 5 mps 763 mmHg 13%
    17:00 +23°C° 0 mm 5 mps 763 mmHg 13%
    18:00 +22°C° 0 mm 5 mps 763 mmHg 15%
    19:00 +20°C° 0 mm 4 mps 764 mmHg 16%
    20:00 +19°C° 0 mm 4 mps 764 mmHg 17%
    21:00 +18°C° 0 mm 4 mps 764 mmHg 18%
    22:00 +18°C° 0 mm 3 mps 765 mmHg 18%
    23:00 +17°C° 0 mm 3 mps 765 mmHg 19%
    Show more